Flag for British Virgin Islands Weather past 2 weeks in Road Town, Tortola, British Virgin Islands

Now
84 °F

Clear.


Feels Like: 93 °F
Forecast: 83 / 87 °F
Wind: 12 mph from East

Location: Cyril E. King International Airport

Current Time: Aug 29, 2015 at 2:14:22 AM

Latest Report: Aug 29, 2015 at 12:53 AM


Visibility: 10 mi

Pressure: 30.01 "Hg

Humidity: 77%

Dew point: 76 °F

Location of Road TownLocation

Historic Weather in Road Town — Graph

°F

Road Town temperature yesterday

Maximum temperature yesterday: 89 °F (at 11:53 AM)
Minimum temperature yesterday: 80 °F (at 3:53 AM)
Average temperature yesterday: 85 °F

Past Weeks' High & Low Weather Summary

 TemperatureHumidityPressure
High93 °F (Aug 24, 12:53 PM)100% (Aug 16, 3:53 PM)30.06 "Hg (Aug 16, 3:53 PM)
Low74 °F (Aug 17, 5:53 AM)56% (Aug 19, 4:53 PM)29.81 "Hg (Aug 27, 3:53 PM)
Average84 °F75%29.97 "Hg
* Reported Aug 14 12:53 AM — Aug 29 12:53 AM, Road Town, Weather by CustomWeather, © 2015

Note: Actual official high and low records may vary slightly from our data, if they occured in-between our weather recording intervals... More about our weather records

Advertising

Road Town weather history for previous 24 hours

 ConditionsComfort  
Time TempWeatherWind HumidityBarometerVisibility
12:53 AM
Sat, Aug 29
84 °FClear.12 mph77%30.01 "Hg10 mi
11:53 PM
Fri, Aug 28
84 °FClear.10 mph80%30.03 "Hg10 mi
10:53 PM84 °FClear.13 mph77%30.03 "Hg10 mi
9:53 PM84 °FClear.8 mph80%30.03 "Hg10 mi
8:53 PM85 °FPassing clouds.10 mph80%30.02 "Hg10 mi
7:53 PM85 °FPassing clouds.10 mph80%30.01 "Hg10 mi
7:32 PM85 °FPartly cloudy.9 mph80%30.01 "Hg10 mi
6:53 PM85 °FPassing clouds.9 mph77%30.00 "Hg10 mi
5:53 PM86 °FSunny.12 mph75%29.99 "Hg10 mi
4:53 PM87 °FPassing clouds.13 mph72%29.99 "Hg10 mi
3:53 PM86 °FPassing clouds.16 mph77%29.98 "Hg10 mi
2:53 PM87 °FPassing clouds.16 mph75%29.98 "Hg10 mi
1:53 PM89 °FSunny.20 mph68%29.99 "Hg10 mi
12:53 PM89 °FPassing clouds.21 mph70%30.01 "Hg10 mi
11:53 AM89 °FScattered clouds.17 mph70%30.02 "Hg10 mi
10:53 AM88 °FSunny.17 mph70%30.02 "Hg10 mi
9:53 AM88 °FScattered clouds.17 mph73%30.02 "Hg10 mi
8:53 AM87 °FPassing clouds.20 mph77%30.00 "Hg10 mi
7:53 AM86 °FScattered clouds.18 mph77%29.99 "Hg10 mi
6:53 AM84 °FScattered clouds.21 mph80%29.97 "Hg10 mi
5:53 AM84 °FPassing clouds.20 mph70%29.96 "Hg10 mi
4:53 AM84 °FClear.22 mph70%29.92 "Hg10 mi
3:53 AM80 °FLight rain. Clear.29 mph74%29.94 "Hg10 mi
2:53 AM82 °FOvercast.30 mph70%29.97 "Hg10 mi
Weather by CustomWeather, © 2015

See weather overviewHow to use our weather pages